TimeCDT,TemperatureF,Dew PointF,Humidity,Sea Level PressureIn,VisibilityMPH,Wind Direction,Wind SpeedMPH,Gust SpeedMPH,PrecipitationIn,Events,Conditions,WindDirDegrees,DateUTC
12:13 AM,42.8,42.8,100,29.76,10.0,Calm,Calm,-,N/A,,Scattered Clouds,0,2013-10-06 05:13:00
12:33 AM,42.8,42.8,100,29.76,10.0,Calm,Calm,-,N/A,,Scattered Clouds,0,2013-10-06 05:33:00
12:52 AM,42.8,42.8,100,29.75,10.0,Calm,Calm,-,N/A,,Scattered Clouds,0,2013-10-06 05:52:00
1:13 AM,42.8,42.8,100,29.74,7.0,North,3.5,-,N/A,,Unknown,360,2013-10-06 06:13:00
1:33 AM,42.8,42.8,100,29.74,10.0,Calm,Calm,-,N/A,,Scattered Clouds,0,2013-10-06 06:33:00
1:52 AM,42.8,42.8,100,29.73,10.0,Calm,Calm,-,N/A,,Mostly Cloudy,0,2013-10-06 06:52:00
2:13 AM,44.6,44.6,100,29.74,10.0,Calm,Calm,-,N/A,,Overcast,0,2013-10-06 07:13:00
2:33 AM,44.6,44.6,100,29.73,10.0,Calm,Calm,-,N/A,,Unknown,0,2013-10-06 07:33:00
2:52 AM,44.6,44.6,100,29.72,10.0,Calm,Calm,-,N/A,,Overcast,0,2013-10-06 07:52:00
3:13 AM,46.4,46.4,100,29.71,10.0,West,3.5,-,N/A,,Unknown,270,2013-10-06 08:13:00
3:33 AM,46.4,46.4,100,29.71,10.0,WNW,3.5,-,N/A,,Overcast,290,2013-10-06 08:33:00
3:52 AM,46.4,46.4,100,29.71,10.0,WNW,4.6,-,N/A,,Unknown,290,2013-10-06 08:52:00
4:13 AM,46.4,46.4,100,29.71,10.0,WNW,4.6,-,N/A,,Overcast,290,2013-10-06 09:13:00
4:33 AM,48.2,46.4,93,29.71,10.0,WNW,4.6,-,N/A,,Overcast,290,2013-10-06 09:33:00
4:52 AM,48.2,46.4,93,29.71,10.0,Calm,Calm,-,N/A,,Unknown,0,2013-10-06 09:52:00
5:13 AM,48.2,48.2,100,29.71,7.0,NW,4.6,-,N/A,,Overcast,310,2013-10-06 10:13:00
5:33 AM,48.2,48.2,100,29.71,3.0,West,3.5,-,N/A,,Drizzle,280,2013-10-06 10:33:00
5:52 AM,48.2,48.2,100,29.71,3.0,Calm,Calm,-,N/A,,Heavy Drizzle,0,2013-10-06 10:52:00
6:13 AM,48.2,48.2,100,29.71,2.5,WSW,3.5,-,N/A,,Heavy Drizzle,250,2013-10-06 11:13:00
6:33 AM,48.2,48.2,100,29.71,2.5,Calm,Calm,-,N/A,,Heavy Drizzle,0,2013-10-06 11:33:00
6:52 AM,48.2,48.2,100,29.71,2.5,Calm,Calm,-,N/A,,Drizzle,0,2013-10-06 11:52:00
7:13 AM,48.2,48.2,100,29.71,4.0,Calm,Calm,-,N/A,,Overcast,0,2013-10-06 12:13:00
7:32 AM,48.2,48.2,100,29.71,7.0,NW,3.5,-,N/A,,Overcast,310,2013-10-06 12:32:00
7:53 AM,48.2,48.2,100,29.71,1.2,Calm,Calm,-,N/A,,Heavy Drizzle,0,2013-10-06 12:53:00
8:12 AM,48.2,48.2,100,29.72,7.0,North,8.1,-,N/A,,Overcast,350,2013-10-06 13:12:00
8:33 AM,48.2,48.2,100,29.73,4.0,NNW,11.5,-,N/A,,Overcast,340,2013-10-06 13:33:00
8:52 AM,48.2,48.2,100,29.73,1.2,NNW,9.2,-,N/A,,Drizzle,340,2013-10-06 13:52:00
9:13 AM,48.2,48.2,100,29.73,1.5,NNW,10.4,-,N/A,,Overcast,340,2013-10-06 14:13:00
9:33 AM,48.2,48.2,100,29.73,1.5,North,10.4,-,N/A,,Drizzle,350,2013-10-06 14:33:00
9:52 AM,50.0,50.0,100,29.73,7.0,NNW,11.5,-,N/A,,Overcast,340,2013-10-06 14:52:00
10:13 AM,51.8,51.8,100,29.73,7.0,North,15.0,19.6,N/A,,Overcast,350,2013-10-06 15:13:00
10:32 AM,50.0,50.0,100,29.73,10.0,NNW,16.1,20.7,N/A,,Overcast,340,2013-10-06 15:32:00
10:53 AM,50.0,50.0,100,29.74,10.0,NNW,15.0,19.6,N/A,,Overcast,340,2013-10-06 15:53:00
11:13 AM,50.0,50.0,100,29.74,5.0,North,15.0,20.7,N/A,,Overcast,350,2013-10-06 16:13:00
11:32 AM,50.0,50.0,100,29.74,4.0,North,13.8,18.4,N/A,,Overcast,350,2013-10-06 16:32:00
11:53 AM,50.0,50.0,100,29.75,10.0,North,11.5,18.4,N/A,,Overcast,350,2013-10-06 16:53:00
12:13 PM,51.8,51.8,100,29.76,10.0,NNW,10.4,-,N/A,,Overcast,340,2013-10-06 17:13:00
12:32 PM,51.8,48.2,88,29.75,10.0,North,15.0,23.0,N/A,,Overcast,360,2013-10-06 17:32:00
12:53 PM,51.8,50.0,94,29.76,10.0,NNW,15.0,19.6,N/A,,Overcast,340,2013-10-06 17:53:00
1:13 PM,51.8,50.0,94,29.76,10.0,NNW,11.5,-,N/A,,Overcast,340,2013-10-06 18:13:00
1:32 PM,50.0,48.2,94,29.76,2.5,NNW,11.5,-,N/A,Rain,Light Rain,340,2013-10-06 18:32:00
1:53 PM,48.2,48.2,100,29.76,-9999.0,NNW,13.8,24.2,N/A,,Overcast,340,2013-10-06 18:53:00
2:12 PM,48.2,48.2,100,29.76,5.0,North,13.8,21.9,N/A,,Overcast,350,2013-10-06 19:12:00
2:33 PM,48.2,48.2,100,29.77,10.0,North,13.8,-,N/A,,Overcast,350,2013-10-06 19:33:00
2:53 PM,50.0,48.2,94,29.77,10.0,NNW,18.4,-,N/A,,Overcast,340,2013-10-06 19:53:00
3:12 PM,48.2,48.2,100,29.78,10.0,NNW,15.0,20.7,N/A,,Light Drizzle,330,2013-10-06 20:12:00
3:33 PM,48.2,48.2,100,29.78,2.0,NNW,13.8,-,N/A,,Drizzle,340,2013-10-06 20:33:00
3:53 PM,48.2,48.2,100,29.79,2.5,NNW,11.5,-,N/A,Rain,Heavy Rain,340,2013-10-06 20:53:00
4:12 PM,48.2,48.2,100,29.79,1.8,NNW,10.4,-,N/A,,Overcast,330,2013-10-06 21:12:00
4:33 PM,48.2,48.2,100,29.79,5.0,NNW,13.8,21.9,N/A,,Drizzle,340,2013-10-06 21:33:00
4:53 PM,48.2,48.2,100,29.80,10.0,NNW,11.5,-,N/A,,Overcast,340,2013-10-06 21:53:00
5:12 PM,48.2,48.2,100,29.81,10.0,NNW,11.5,16.1,N/A,,Overcast,330,2013-10-06 22:12:00
5:33 PM,50.0,50.0,100,29.81,10.0,NNW,10.4,-,N/A,,Mostly Cloudy,340,2013-10-06 22:33:00
5:52 PM,50.0,50.0,100,29.82,10.0,NW,10.4,-,N/A,,Scattered Clouds,320,2013-10-06 22:52:00
6:13 PM,51.8,50.0,94,29.83,10.0,NNW,5.8,-,N/A,,Unknown,330,2013-10-06 23:13:00
6:33 PM,51.8,48.2,88,29.83,10.0,NW,4.6,-,N/A,,Clear,310,2013-10-06 23:33:00
6:52 PM,51.8,48.2,88,29.83,10.0,WNW,4.6,-,N/A,,Clear,300,2013-10-06 23:52:00
7:13 PM,51.8,48.2,88,29.84,10.0,WNW,4.6,-,N/A,,Clear,300,2013-10-07 00:13:00
7:33 PM,50.0,48.2,94,29.84,10.0,Calm,Calm,-,N/A,,Clear,0,2013-10-07 00:33:00
7:53 PM,50.0,48.2,94,29.84,10.0,WNW,5.8,-,N/A,,Clear,300,2013-10-07 00:53:00
8:12 PM,51.8,46.4,82,29.85,10.0,NW,8.1,-,N/A,,Clear,310,2013-10-07 01:12:00
8:33 PM,51.8,46.4,82,29.85,10.0,WNW,8.1,-,N/A,,Clear,300,2013-10-07 01:33:00
8:53 PM,50.0,46.4,87,29.85,10.0,North,-9999.0,-,N/A,,Clear,0,2013-10-07 01:53:00
9:12 PM,50.0,44.6,82,29.86,10.0,NW,8.1,-,N/A,,Clear,310,2013-10-07 02:12:00
9:33 PM,50.0,44.6,82,29.86,10.0,WNW,9.2,-,N/A,,Clear,300,2013-10-07 02:33:00
9:52 PM,48.2,44.6,87,29.87,10.0,WNW,9.2,-,N/A,,Clear,300,2013-10-07 02:52:00
10:13 PM,48.2,44.6,87,29.87,10.0,WNW,10.4,-,N/A,,Clear,290,2013-10-07 03:13:00
10:33 PM,48.2,44.6,87,29.88,10.0,WNW,9.2,-,N/A,,Clear,290,2013-10-07 03:33:00
10:52 PM,48.2,44.6,87,29.88,10.0,West,5.8,-,N/A,,Clear,280,2013-10-07 03:52:00
11:13 PM,48.2,44.6,87,29.88,10.0,West,5.8,-,N/A,,Clear,280,2013-10-07 04:13:00
11:33 PM,48.2,44.6,87,29.87,10.0,West,4.6,-,N/A,,Clear,270,2013-10-07 04:33:00
11:52 PM,46.4,42.8,87,29.87,10.0,West,5.8,-,N/A,,Scattered Clouds,270,2013-10-07 04:52:00